Flag for U.S.A. Weather past 2 weeks in Oakland, California, U.S.A.

Now
61 °F

Scattered clouds.


Feels Like: 61 °F
Forecast: 48 / 64 °F
Wind: 10 mph from West

Location: Metro Oakland International Airport


UV Index: 5 (Moderate)

Visibility: 10 mi


Pressure: 30.16 "Hg

Humidity: 38%

Dew point: 35 °F

Location of OaklandLocation

Historic Weather in Oakland

°F

Oakland temperature yesterday

Maximum temperature yesterday: 64 °F (at 1:53 PM)
Minimum temperature yesterday: 52 °F (at 3:53 AM)
Average temperature yesterday: 57 °F

Past Weeks' High & Low Weather Summary

 TemperatureHumidityPressure
High76 °F (Apr 8, 1:53 PM)90% (Apr 9, 1:53 AM)30.16 "Hg (Apr 9, 1:53 AM)
Low46 °F (Apr 23, 5:53 AM)33% (Apr 20, 3:53 PM)29.80 "Hg (Apr 17, 4:53 AM)
Average58 °F69%30.00 "Hg
* Reported Apr 8 10:53 AM — Apr 23 10:53 AM, Oakland, Weather by CustomWeather, © 2014

Note: Actual official high and low records may vary slightly from our data, if they occured in-between our weather recording intervals... More about our weather records

Advertising

Historic Weather Conditions — Data for Previous 24 hours

 ConditionsComfort  
Time TempWeatherWind HumidityBarometerVisibility
10:53 AM
Apr 23
61 °FScattered clouds.10 mph38%30.16 "Hg10 mi
9:53 AM58 °FPartly sunny.9 mph44%30.16 "Hg10 mi
8:53 AM57 °FPassing clouds.9 mph46%30.15 "Hg10 mi
7:53 AM53 °FPassing clouds.No wind59%30.15 "Hg10 mi
6:53 AM47 °FPassing clouds.3 mph69%30.13 "Hg10 mi
5:53 AM46 °FPassing clouds.5 mph68%30.12 "Hg10 mi
4:53 AM50 °FClear.No wind61%30.11 "Hg10 mi
3:53 AM50 °FClear.3 mph59%30.11 "Hg10 mi
2:53 AM53 °FClear.10 mph55%30.11 "Hg10 mi
1:53 AM53 °FClear.7 mph55%30.11 "Hg10 mi
12:53 AM54 °FPassing clouds.10 mph49%30.11 "Hg10 mi
11:53 PM
Apr 22
54 °FPassing clouds.8 mph55%30.13 "Hg10 mi
10:53 PM54 °FPassing clouds.10 mph55%30.13 "Hg10 mi
9:53 PM54 °FPassing clouds.7 mph51%30.13 "Hg10 mi
8:53 PM55 °FPassing clouds.13 mph57%30.11 "Hg10 mi
7:53 PM56 °FPartly sunny.21 mph58%30.11 "Hg10 mi
6:53 PM58 °FPartly sunny.23 mph56%30.10 "Hg10 mi
5:53 PM60 °FPartly sunny.25 mph52%30.10 "Hg10 mi
4:53 PM61 °FScattered clouds.26 mph46%30.10 "Hg10 mi
3:53 PM62 °FScattered clouds.29 mph48%30.10 "Hg10 mi
2:53 PM64 °FPassing clouds.30 mph37%30.10 "Hg10 mi
1:53 PM64 °FPassing clouds.24 mph40%30.09 "Hg10 mi
12:53 PM63 °FPassing clouds.22 mph43%30.10 "Hg10 mi
11:53 AM63 °FPassing clouds.23 mph43%30.10 "Hg10 mi
Weather by CustomWeather, © 2014

See weather overview